Вернуться в каталог

STARLINK-37149

АктивенСвязьSSO
NORAD 68309·PAYLOAD·🇺🇸 United States

Запущен Mar 20, 2026 с Vandenberg Space Force Base

Loading…

Ближайшие Пролёты (ближайшие 24 часа)

TLE

СвежийSource: CelesTrak SupGP

Эпоха: Sep 15, 2026, 03:06 UTC

1 68309C 26057R   26258.12965278  .00015495  00000+0  48079-3 0  2581
2 68309  97.2858  23.6374 0000943  91.9042 231.5321 15.33445854    13

Отслеживайте STARLINK-37149 в реальном времени с AllMySat

Download on the App Store